Location: Prairie View Elementary School
(39.8322°N, 99.5698°W)
Time: 21:49:57
(UTC+00:00)

NOSS 2 (A) - Pass Details

Date: 08 December 2019
Orbit: 273 x 1575 km, 63.3° (Epoch: 06 February)

Event Time Altitude Azimuth Distance (km) Brightness Sun altitude
Rises 00:13:26 0° 330° (NNW) 1,988 8.3 -11.3°
Reaches altitude 10° 00:15:25 10° 336° (NNW) 1,121 7.0 -11.7°
Maximum altitude 00:17:44 49° 54° (NE) 367 4.0 -12.1°
Enters shadow 00:19:45 12° 130° (SE) 990 6.3 -12.5°
